Regional Weather Roundup
Issued by NWS Midland/Odessa, TX

Skip options and go directly to product.
Home | Oldest Version | Next Version | Current Version | All | Text Only | Save Text | Print | Product List | Glossary On

Skip product version selection by date and time.   
265
ASUS44 KMAF 240601
RWRMAF
MIDLAND AREA WEATHER ROUNDUP
NATIONAL WEATHER SERVICE MIDLAND TX
100 AM CDT FRI APR 24 2015

...IN SOUTHWEST TEXAS AND SOUTHEAST NEW MEXICO...

CITY           SKY/WX    TMP DP  RH WIND       PRES   REMARKS
ALPINE         CLOUDY    55  50  85 SW3       30.09F
ANDREWS        FAIR      65  48  54 SW20G30   29.92S
ARTESIA        CLOUDY    64  45  48 SW10      29.87S
BIG SPRING     FAIR      74  40  28 SW26G36   29.94R
CARLSBAD       MOCLDY    66  43  43 S15       29.85S
DRYDEN           N/A     67  59  75 SE12      29.96R
FORT STOCKTON  MOCLDY    62  50  64 SW14      29.95F
GUAD PASS      NOT AVBL
HOBBS          FAIR      64  39  39 S15G23    29.91S
MARFA          CLOUDY    52  50  93 NE8       30.04F
MIDLAND AIRPK  FAIR      68  49  50 W18G30    29.96S
MIDLAND INTL   MOCLDY    66  50  56 W15G26    29.95S
ODESSA         LGT RAIN  62  53  72 W9        29.97S
PECOS          FAIR      67  48  51 S13       29.91S
PRESIDIO       LGT RAIN  62  57  83 MISG      29.97S
SEMINOLE       FAIR      68  38  33 SW14      29.91F
SNYDER         CLOUDY    69  48  47 S7        29.88S
WINK           CLOUDY    68  46  45 S9        29.88F
$$
...OTHER STATIONS IN TEXAS...

CITY           SKY/WX    TMP DP  RH WIND       PRES   REMARKS
ABILENE        FAIR      72  50  45 SW6       29.90S
AMARILLO       CLOUDY    58  56  93 S9        29.83F
AUSTIN         CLOUDY    73  71  93 S5        29.89S
BROWNSVILLE    CLOUDY    78  76  93 SE10      29.87R
CORPUS CHRISTI CLOUDY    76  74  93 NE12      29.84F
DALLAS FTW     LGT RAIN  67  65  93 SE16      29.87R
DEL RIO        LGT RAIN  66  62  87 N10       29.90R
EL PASO        CLOUDY    68  35  29 SW14      29.89R
HOUSTON INT    MOCLDY    73  71  93 CALM      29.88F
LUBBOCK        CLOUDY    64  51  62 SW12      29.85F
SAN ANGELO     MOCLDY    72  47  40 SW13      29.94R
SAN ANTONIO    CLOUDY    77  73  87 SE10      29.91R
WACO           FAIR      70  69  97 SE3       29.89R FOG
WICHITA FALLS  NOT AVBL
$$
...OTHER LOCATIONS IN NEW MEXICO...

CITY           SKY/WX    TMP DP  RH WIND       PRES   REMARKS
ALAMAGORDO     CLOUDY    64  39  39 W16G23    29.90R
ALBUQUERQUE    PTCLDY    55  27  34 E5        29.88F
CANNON AFB     MOCLDY    59  32  36 SW10      29.86F
CLOVIS         MOCLDY    55  32  41 SW10      29.86S
HOLLOMAN AFB   CLOUDY    61  43  52 W3        29.89S
ROSWELL        CLOUDY    65  39  38 SW15      29.84S
RUIDOSO        CLOUDY    46  37  71 NW17G26   30.02R WCI  39
SANTA FE       MOCLDY    53  19  26 W8        29.89S
TRUTH OR CONSE CLOUDY    63  33  32 SW20G25   29.86F
TUCUMCARI      MOCLDY    63  28  26 SW17      29.80R
$$

USA.gov is the U.S. government's official web portal to all federal, state and local government web resources and services.